Showing default

COSMOS 2489, 39484

Orbit data source: Space-Track

COSMOS 2489, 39484 is a payload satellite owned by VVKO (CIS) in LEO that was launched on Wed, 25 Dec 2013 UTC via an ROKOT launch vehicle from the Plesetsk Missile And Space Complex (PKMTR). Payload-class satellites include a variety of spacecraft equipped with specific instruments for various scientific and technological missions. These include communications satellites like Starlink; space stations such as the ISS; scientific satellites like the Hubble; Earth observation satellites from companies like Planet Labs, Umbra, and HawkEye 360; GPS; miniature CubeSats for education and research; and military/defense satellites.

Loading next visibility...
Identifier
39484, 2013-076B
Orbit
LEO
Country
Flag of CISCIS
Related business
Manufacturer
Resehetnev ISS
Mission
Operational Civil Communications
Bus & Motor
STRELA-3M, Unknown motor
Mass
280 kg wet, 280 kg dry
Launch date (UTC)
2013-12-25 (12 years ago)
Launch vehicle
ROKOT
Launch site
Plesetsk Missile And Space Complex (PKMTR)
Object type
Payload
Rocket body
Debris
Shape & HBR
Cyl + 1 Ant, 3.5 m
Radar Cross Section
1.583 m², Large (>1 m²)

Expand to show TLE details & history
Last TLE update: 12 hours ago

TLE from 12 hours ago
0 COSMOS 2489
1 39484U 13076B   25309.95353416  .00000014  00000-0  29007-4 0  9997
2 39484  82.4856 309.1221 0020115 219.9891 139.9709 12.42870256538213
Epoch: 2025-11-05T22:53Z
TLE epoch observation values (Epoch: 2025-11-05T22:53:05.351Z)
Latitude
0.00006°
Longitude
-79.56899°
Altitude
1,509.299 km
Speed
7.105 km/s
True Right ascension
20h 36m 29s
True Declination
0° 00' 00"
Sunlit
Object was in daylight at epoch
Visualization orbit readout
Latitude
Unknown
Longitude
Unknown
Altitude
Unknown
Speed
Unknown
Apparent Right ascension
Unknown
Apparent Declination
Unknown
Sunlit
N/A
Visualization observer readout
Local Sidereal Time
07:03:59
Azimuth
Unknown
Elevation
Unknown
Doppler factor
Unknown
Orbital elements
Apogee altitude
1,507.641 km
Perigee altitude
1,475.981 km
Semi-major axis
7,869.948 km
Eccentricity
0.00201
Inclination
82.4856°
RAAN
309.1221°
Arg. of periapsis
219.9891°
True anomaly
140.11887°
Mean anomaly
139.9709°
Eccentric anomaly
140.04491°
Mean motion
3.10875 °/min
Orbital period
115.8 mins
BSTAR
0.000029007
Loading maneuver chart data...
Computing Atmospheric mass density...
Loading historical data...
Loading historical data...
Loading historical data...
Loading historical data...
Loading historical data...
Loading historical data...
Loading historical data...

Documentation

Showing up to 5 results
|